Location: Old Broadwell Mill Observatory
(33.8015°N, 85.8137°W)
Time: 05:02:40
(UTC-05:00)

Amateur Radio Satellites - All Passes

Search period start: 20 August 2017 04:32
Search period end: 21 August 2017 04:32
Location: Old Broadwell Mill Observatory, 33.8015°N, 85.8137°W

Satellite Date Start Highest point End Downlink Frequencies (MHz)
Time Altitude Azimuth
ITUPSAT 1 20 Aug 04:34:34 04:36:34 13° 267° (W) 04:38:36 437.325
AO-7 20 Aug 04:51:59 05:00:13 67° 291° (WNW) 05:08:24 .
STARS 20 Aug 04:52:01 04:55:44 27° 71° (ENE) 04:59:27 437.465
AO-85 20 Aug 05:17:39 05:21:33 58° 116° (ESE) 05:25:24 145.980
KKS-1 20 Aug 05:47:05 05:50:47 25° 263° (W) 05:54:29 437.445
CUBESAT XI-V 20 Aug 05:48:26 05:50:16 12° 268° (W) 05:52:05 437.345
STRAND 1 20 Aug 05:59:37 06:00:10 10° 62° (ENE) 06:00:42 437.568
LilacSat-2 20 Aug 05:59:44 06:02:35 19° 95° (E) 06:05:25 437.200
BEESAT 3 20 Aug 06:04:48 06:08:02 23° 306° (NW) 06:11:17 437.485
XW-2D 20 Aug 06:04:59 06:08:00 22° 96° (E) 06:11:00 145.860 - 145.880
DOVE 4 20 Aug 06:06:21 06:10:52 82° 102° (ESE) 06:15:08 437.250
NUDT-PHONESAT 20 Aug 06:15:13 06:18:00 20° 96° (E) 06:20:47 437.300
BEESAT 2 20 Aug 06:15:29 06:19:23 55° 301° (WNW) 06:23:21 435.950
XW-2B 20 Aug 06:15:43 06:19:05 28° 97° (E) 06:22:25 145.730 - 145.750
STARS 20 Aug 06:28:38 06:32:00 21° 264° (W) 06:35:22 437.465
CUTE-I 20 Aug 06:32:14 06:37:12 39° 99° (E) 06:42:08 437.470
XW-2C 20 Aug 06:34:24 06:38:10 53° 100° (E) 06:41:56 145.795 - 145.815
XW-2F 20 Aug 06:47:16 06:51:07 77° 101° (ESE) 06:54:56 145.980 - 146.000
AO-7 20 Aug 06:48:36 06:51:25 12° 309° (NW) 06:54:14 .
CUTE 1.7 + AOD 2 20 Aug 06:49:47 06:51:31 12° 92° (E) 06:53:16 437.475
AO-85 20 Aug 07:01:35 07:02:15 10° 312° (NW) 07:02:55 145.980
KAITUO 1B 20 Aug 07:14:05 07:17:49 57° 284° (WNW) 07:21:33 145.475/437.950
HO-68 20 Aug 07:21:41 07:28:17 39° 99° (E) 07:34:50 435.675
XW-2A 20 Aug 07:31:17 07:33:27 16° 95° (E) 07:35:36 145.665 - 145.685
STRAND 1 20 Aug 07:33:29 07:38:36 80° 257° (WSW) 07:43:43 437.568
LilacSat-2 20 Aug 07:33:42 07:36:44 22° 289° (WNW) 07:39:48 437.200
PCSat 20 Aug 07:36:54 07:41:29 27° 56° (NE) 07:46:00 145.827
SEEDS 20 Aug 07:37:37 07:41:19 28° 97° (E) 07:44:59 437.485
XW-2D 20 Aug 07:39:12 07:42:01 20° 289° (WNW) 07:44:51 145.860 - 145.880
NUDT-PHONESAT 20 Aug 07:48:55 07:51:45 21° 289° (WNW) 07:54:34 437.300
XW-2B 20 Aug 07:50:41 07:52:58 15° 290° (WNW) 07:55:15 145.730 - 145.750
CUTE-I 20 Aug 08:12:59 08:16:56 22° 293° (WNW) 08:20:52 437.470
UWE-3 20 Aug 08:20:06 08:24:10 42° 99° (E) 08:28:19 435.000/436.395/437.385
SO-50 20 Aug 08:22:11 08:26:41 53° 59° (ENE) 08:31:11 436.795
CUTE 1.7 + AOD 2 20 Aug 08:23:26 08:27:31 44° 286° (WNW) 08:31:35 437.475
AAUSAT CUBESAT 2 20 Aug 08:25:23 08:29:25 46° 99° (E) 08:33:25 437.432
CUBEBUG 2 20 Aug 08:25:30 08:29:44 88° 282° (WNW) 08:34:03 437.445
Tancredo 1 20 Aug 08:27:51 08:30:29 32° 132° (SE) 08:33:09 437.200
Oscar 11 20 Aug 08:34:18 08:37:32 20° 95° (E) 08:40:47 .
O/OREOS (USA 219) 20 Aug 08:45:02 08:48:17 20° 101° (E) 08:51:30 437.305
FO-29 20 Aug 08:45:22 08:52:39 47° 71° (ENE) 08:59:21 435.910
UNISAT 6 20 Aug 08:53:11 08:55:36 15° 68° (ENE) 08:58:00 437.425
NO-84 20 Aug 08:58:53 09:01:53 39° 45° (NE) 09:05:07 435.350 FM
ZACube-1 20 Aug 09:01:34 09:05:52 72° 102° (ESE) 09:10:14 437.345
XW-2A 20 Aug 09:03:31 09:06:04 20° 288° (WNW) 09:08:37 145.665 - 145.685
HO-68 20 Aug 09:09:32 09:15:49 35° 294° (WNW) 09:22:07 435.675
PRISM 20 Aug 09:12:55 09:15:34 17° 68° (ENE) 09:18:13 437.425
SEEDS 20 Aug 09:13:44 09:16:45 19° 291° (WNW) 09:19:46 437.485
PCSat 20 Aug 09:19:58 09:24:52 35° 251° (WSW) 09:29:43 145.827
ISS 20 Aug 09:22:20 09:25:16 30° 131° (SE) 09:28:12 437.550
AO-73 20 Aug 09:23:17 09:27:33 70° 284° (WNW) 09:31:56 145.935
TIGRISAT 20 Aug 09:26:51 09:30:44 33° 73° (ENE) 09:34:35 435.000
nSIGHT-1 20 Aug 09:31:32 09:34:38 42° 132° (SE) 09:37:45 .
Max Valier Satellite 20 Aug 09:36:09 09:38:24 15° 95° (E) 09:40:39 145.860
DELFI C3 20 Aug 09:38:49 09:42:04 24° 96° (E) 09:45:17 145.870
UWE-3 20 Aug 09:58:09 10:00:15 13° 292° (WNW) 10:02:21 435.000/436.395/437.385
AAUSAT CUBESAT 2 20 Aug 10:02:52 10:04:24 12° 293° (WNW) 10:05:56 437.432
Tancredo 1 20 Aug 10:03:47 10:05:45 16° 327° (NNW) 10:07:43 437.200
SO-50 20 Aug 10:04:36 10:06:38 13° 252° (WSW) 10:08:43 436.795
Oscar 11 20 Aug 10:09:56 10:13:37 28° 289° (WNW) 10:17:18 .
M-CUBED/EXP-1 PRIME 20 Aug 10:12:37 10:15:28 17° 62° (ENE) 10:18:23 437.505
JUGNU 20 Aug 10:13:42 10:16:40 14° 167° (SSE) 10:19:39 437.505
O/OREOS (USA 219) 20 Aug 10:23:32 10:27:26 29° 295° (WNW) 10:31:21 437.305
UNISAT 6 20 Aug 10:27:52 10:31:57 39° 261° (W) 10:36:00 437.425
EO-88 20 Aug 10:30:40 10:34:21 68° 102° (ESE) 10:37:59 145.990 - 145.960
FO-29 20 Aug 10:31:02 10:37:38 31° 263° (W) 10:43:51 435.910
NO-84 20 Aug 10:37:30 10:39:04 13° 236° (SW) 10:40:41 435.350 FM
RS-15 20 Aug 10:39:03 10:50:44 57° 110° (ESE) 11:02:37 29.354- 29.394
PRISM 20 Aug 10:46:50 10:50:32 32° 262° (W) 10:54:17 437.425
ISS 20 Aug 10:59:10 11:01:46 21° 326° (NW) 11:04:21 437.550
TIGRISAT 20 Aug 11:04:40 11:07:27 17° 265° (W) 11:10:13 435.000
ESTCUBE 1 20 Aug 11:05:02 11:07:11 13° 93° (E) 11:09:20 437.505/2401.250
nSIGHT-1 20 Aug 11:08:55 11:11:10 17° 328° (NNW) 11:13:25 .
Max Valier Satellite 20 Aug 11:09:07 11:12:12 25° 288° (WNW) 11:15:16 145.860
NANOSAT C BR1 20 Aug 11:09:18 11:12:26 21° 70° (ENE) 11:15:35 145.865
POLYITAN 1 20 Aug 11:12:55 11:16:24 26° 71° (ENE) 11:19:53 437.675
DELFI C3 20 Aug 11:13:47 11:16:38 19° 290° (WNW) 11:19:28 145.870
QB50P2 20 Aug 11:27:25 11:31:24 43° 74° (ENE) 11:35:24 145.880/145.840
EO-79 20 Aug 11:28:27 11:32:22 40° 74° (ENE) 11:36:18 145.935-145.965
AIST 2D 20 Aug 11:34:28 11:37:52 53° 261° (W) 11:41:17 435.315
M-CUBED/EXP-1 PRIME 20 Aug 11:45:15 11:49:26 43° 257° (WSW) 11:53:49 437.505
DUCHIFAT 1 20 Aug 11:59:02 12:03:12 76° 75° (ENE) 12:07:22 145.980
JUGNU 20 Aug 12:00:47 12:05:00 20° 177° (S) 12:09:12 437.505
LO-87 20 Aug 12:02:58 12:06:27 60° 283° (WNW) 12:09:54 145.935 - 145.965
BUGSAT 1 20 Aug 12:03:12 12:06:12 20° 70° (ENE) 12:09:10 437.445
ESTCUBE 1 20 Aug 12:39:48 12:44:09 46° 287° (WNW) 12:48:28 437.505/2401.250
NANOSAT C BR1 20 Aug 12:44:30 12:47:58 25° 263° (W) 12:51:27 145.865
Oscar 19 20 Aug 12:47:10 12:51:38 31° 70° (ENE) 12:56:07 437.125/150
POLYITAN 1 20 Aug 12:49:00 12:52:06 20° 264° (W) 12:55:13 437.675
VELOX 1 20 Aug 12:49:27 12:53:34 38° 99° (E) 12:57:39 145.980
RS-15 20 Aug 12:52:12 13:03:33 42° 311° (NW) 13:15:06 29.354- 29.394
DX 1 20 Aug 12:56:07 12:56:53 10° 92° (E) 12:57:40 434.975-435.025
50 SAT 20 Aug 12:58:57 13:00:42 14° 95° (E) 13:02:26 437.505
SPROUT 20 Aug 13:01:55 13:06:09 73° 102° (ESE) 13:10:22 437.525
QB50P2 20 Aug 13:05:47 13:07:21 12° 267° (W) 13:08:56 145.880/145.840
EO-79 20 Aug 13:06:19 13:08:15 13° 267° (W) 13:10:11 145.935-145.965
BUGSAT 1 20 Aug 13:37:57 13:41:21 25° 263° (W) 13:44:46 437.445
JUGNU 20 Aug 13:49:22 13:53:21 19° 187° (S) 13:57:20 437.505
AO-85 20 Aug 13:52:20 13:55:28 19° 53° (NE) 13:58:43 145.980
Gurwin Techsat 1B 20 Aug 13:54:39 13:59:59 86° 257° (WSW) 14:05:20 435.225
AO-7 20 Aug 13:56:13 14:02:27 24° 58° (ENE) 14:08:39 .
SRMSAT 20 Aug 13:59:23 14:03:14 18° 172° (S) 14:07:05 437.500
ITAMSAT 1 20 Aug 14:08:27 14:10:17 12° 63° (ENE) 14:12:08 435.822/435.867
UKube-1 20 Aug 14:08:38 14:12:52 53° 101° (E) 14:17:03 .
BEESAT 3 20 Aug 14:24:10 14:28:05 56° 60° (ENE) 14:31:55 437.485
Oscar 19 20 Aug 14:26:40 14:30:53 25° 264° (W) 14:35:08 437.125/150
VELOX 1 20 Aug 14:27:00 14:29:38 16° 293° (WNW) 14:32:17 145.980
DX 1 20 Aug 14:29:05 14:33:19 52° 286° (WNW) 14:37:31 434.975-435.025
50 SAT 20 Aug 14:30:38 14:33:19 22° 288° (WNW) 14:35:59 437.505
BEESAT 2 20 Aug 14:37:02 14:40:22 24° 54° (NE) 14:43:39 435.950
ITUPSAT 1 20 Aug 14:59:11 15:02:29 18° 95° (E) 15:05:46 437.325
YUBILEINY 20 Aug 15:01:54 15:09:10 30° 85° (E) 15:16:24 435.215
RS-15 20 Aug 15:14:47 15:20:52 14° 342° (NNW) 15:26:54 29.354- 29.394
AO-85 20 Aug 15:31:46 15:35:56 40° 246° (WSW) 15:40:24 145.980
JUGNU 20 Aug 15:40:04 15:41:38 11° 196° (SSW) 15:43:12 437.505
ITAMSAT 1 20 Aug 15:43:53 15:49:05 73° 257° (WSW) 15:54:17 435.822/435.867
AO-7 20 Aug 15:46:06 15:54:25 70° 255° (WSW) 16:02:47 .
UKube-1 20 Aug 15:47:06 15:48:21 11° 295° (WNW) 15:49:37 .
SRMSAT 20 Aug 15:47:30 15:51:44 20° 182° (S) 15:55:59 437.500
MOZHAYETS 4 20 Aug 15:49:50 15:54:24 61° 101° (E) 15:58:59
BEESAT 20 Aug 16:01:37 16:06:23 86° 285° (WNW) 16:11:09 436.000
nSIGHT-1 20 Aug 16:03:18 16:04:36 12° 28° (NNE) 16:05:54 .
CUBESAT XI-V 20 Aug 16:09:32 16:12:43 18° 94° (E) 16:15:53 437.345
BEESAT 2 20 Aug 16:14:46 16:17:59 23° 249° (WSW) 16:21:09 435.950
Tancredo 1 20 Aug 16:28:16 16:31:09 70° 43° (NE) 16:34:00 437.200
ITUPSAT 1 20 Aug 16:35:59 16:40:21 37° 289° (WNW) 16:44:43 437.325
YUBILEINY 20 Aug 16:57:01 17:05:28 50° 281° (W) 17:13:56 435.215
DOVE 4 20 Aug 17:06:24 17:11:33 55° 75° (ENE) 17:16:39 437.250
XW-2C 20 Aug 17:13:11 17:15:17 15° 69° (ENE) 17:17:24 145.795 - 145.815
XW-2F 20 Aug 17:25:00 17:27:42 19° 71° (ENE) 17:30:26 145.980 - 146.000
ISS 20 Aug 17:29:10 17:32:26 72° 44° (NE) 17:35:40 437.550
MOZHAYETS 4 20 Aug 17:29:36 17:30:59 11° 295° (WNW) 17:32:23
RS-15 20 Aug 17:34:45 17:41:13 15° 21° (NNE) 17:47:32 29.354- 29.394
SRMSAT 20 Aug 17:36:55 17:40:13 15° 192° (SSW) 17:43:31 437.500
nSIGHT-1 20 Aug 17:38:07 17:41:21 81° 223° (SW) 17:44:33 .
KKS-1 20 Aug 17:40:50 17:45:17 82° 105° (ESE) 17:49:41 437.445
CUBESAT XI-V 20 Aug 17:45:49 17:50:09 37° 288° (WNW) 17:54:26 437.345
HO-68 20 Aug 17:47:54 17:52:41 20° 61° (ENE) 17:57:29 435.675
CUTE-I 20 Aug 17:50:03 17:55:08 45° 72° (ENE) 18:00:13 437.470
KAITUO 1B 20 Aug 17:50:08 17:53:27 32° 73° (ENE) 17:56:47 145.475/437.950
LilacSat-2 20 Aug 18:10:35 18:14:20 83° 255° (WSW) 18:18:08 437.200
XW-2D 20 Aug 18:15:16 18:19:00 74° 260° (W) 18:22:46 145.860 - 145.880
STARS 20 Aug 18:20:27 18:24:49 89° 287° (WNW) 18:29:10 437.465
NUDT-PHONESAT 20 Aug 18:23:02 18:26:41 86° 258° (WSW) 18:30:22 437.300
XW-2B 20 Aug 18:26:24 18:30:03 53° 260° (W) 18:33:45 145.730 - 145.750
SEEDS 20 Aug 18:27:07 18:28:53 12° 67° (ENE) 18:30:39 437.485
XW-2C 20 Aug 18:45:56 18:49:11 28° 263° (W) 18:52:28 145.795 - 145.815
DOVE 4 20 Aug 18:46:26 18:49:25 15° 268° (W) 18:52:24 437.250
O/OREOS (USA 219) 20 Aug 18:58:10 19:01:40 22° 62° (ENE) 19:05:12 437.305
XW-2F 20 Aug 18:58:50 19:01:40 21° 264° (W) 19:04:32 145.980 - 146.000
CUTE 1.7 + AOD 2 20 Aug 19:11:29 19:15:41 75° 76° (ENE) 19:19:56 437.475
AAUSAT CUBESAT 2 20 Aug 19:12:18 19:15:11 19° 70° (ENE) 19:18:06 437.432
UWE-3 20 Aug 19:14:01 19:17:09 21° 71° (ENE) 19:20:16 435.000/436.395/437.385
CUBEBUG 2 20 Aug 19:19:36 19:23:43 45° 75° (ENE) 19:27:45 437.445
KAITUO 1B 20 Aug 19:26:03 19:27:31 12° 267° (W) 19:28:59 145.475/437.950
XW-2A 20 Aug 19:29:52 19:33:08 60° 76° (ENE) 19:36:25 145.665 - 145.685
CUTE-I 20 Aug 19:31:39 19:35:19 19° 266° (W) 19:39:00 437.470
HO-68 20 Aug 19:32:34 19:39:41 70° 257° (WSW) 19:46:50 435.675
RS-15 20 Aug 19:46:32 19:58:00 47° 51° (NE) 20:08:49 29.354- 29.394
STRAND 1 20 Aug 19:48:00 19:52:56 47° 100° (E) 19:57:49 437.568
ZACube-1 20 Aug 19:53:46 19:57:27 31° 73° (ENE) 20:01:08 437.345
SEEDS 20 Aug 20:00:06 20:04:06 44° 261° (W) 20:08:09 437.485
AO-73 20 Aug 20:14:45 20:18:46 51° 75° (ENE) 20:22:46 145.935
O/OREOS (USA 219) 20 Aug 20:37:07 20:41:02 29° 257° (WSW) 20:44:58 437.305
AAUSAT CUBESAT 2 20 Aug 20:46:50 20:50:24 28° 263° (W) 20:54:01 437.432
UWE-3 20 Aug 20:49:57 20:53:27 25° 263° (W) 20:56:54 435.000/436.395/437.385
CUBEBUG 2 20 Aug 20:58:57 21:00:29 12° 267° (W) 21:02:00 437.445
Oscar 11 20 Aug 20:59:51 21:04:04 60° 260° (W) 21:08:20 .
EO-88 20 Aug 21:05:40 21:07:52 16° 70° (ENE) 21:10:07 145.990 - 145.960
STRAND 1 20 Aug 21:28:28 21:31:40 17° 294° (WNW) 21:34:52 437.568
ZACube-1 20 Aug 21:31:14 21:33:46 16° 266° (W) 21:36:18 437.345
Max Valier Satellite 20 Aug 21:43:11 21:46:48 72° 77° (ENE) 21:50:26 145.860
FO-29 20 Aug 21:45:01 21:50:16 47° 99° (E) 21:55:13 435.910
DELFI C3 20 Aug 21:53:44 21:57:39 59° 259° (W) 22:01:38 145.870
RS-15 20 Aug 21:59:20 22:10:21 48° 252° (WSW) 22:20:51 29.354- 29.394
PCSat 20 Aug 22:13:56 22:19:10 52° 111° (ESE) 22:24:25 145.827
UNISAT 6 20 Aug 22:22:43 22:26:57 54° 100° (E) 22:31:16 437.425
PRISM 20 Aug 22:31:30 22:35:26 42° 99° (E) 22:39:19 437.425
SO-50 20 Aug 22:32:40 22:36:56 42° 114° (ESE) 22:41:11 436.795
LO-87 20 Aug 22:35:15 22:38:16 26° 73° (ENE) 22:41:17 145.935 - 145.965
EO-88 20 Aug 22:38:20 22:41:19 24° 264° (W) 22:44:19 145.990 - 145.960
TIGRISAT 20 Aug 22:57:51 23:02:06 61° 284° (WNW) 23:06:27 435.000
AIST 2D 20 Aug 23:04:25 23:06:18 14° 94° (E) 23:08:11 435.315
M-CUBED/EXP-1 PRIME 20 Aug 23:28:48 23:31:45 18° 98° (E) 23:34:33 437.505
FO-29 20 Aug 23:31:28 23:34:52 17° 296° (WNW) 23:38:09 435.910
ESTCUBE 1 20 Aug 23:34:47 23:39:16 83° 256° (WSW) 23:43:49 437.505/2401.250
VELOX 1 20 Aug 23:43:14 23:46:37 22° 69° (ENE) 23:50:02 145.980
DUCHIFAT 1 20 Aug 23:47:59 23:50:33 16° 94° (E) 23:53:05 145.980
SPROUT 20 Aug 23:51:21 23:55:08 32° 72° (ENE) 23:58:56 437.525
PCSat 20 Aug 23:59:00 00:02:50 19° 308° (NW) 00:06:42 145.827
UNISAT 6 21 Aug 00:01:58 00:03:11 11° 294° (WNW) 00:04:24 437.425
PRISM 21 Aug 00:08:33 00:10:16 12° 293° (WNW) 00:11:58 437.425
LO-87 21 Aug 00:09:42 00:11:40 14° 266° (W) 00:13:38 145.935 - 145.965
NO-84 21 Aug 00:13:13 00:15:36 21° 126° (SE) 00:17:55 435.350 FM
SO-50 21 Aug 00:14:26 00:17:33 18° 310° (NW) 00:20:39 436.795
NANOSAT C BR1 21 Aug 00:31:35 00:35:44 65° 101° (E) 00:39:54 145.865
POLYITAN 1 21 Aug 00:36:09 00:40:22 85° 103° (ESE) 00:44:36 437.675
AIST 2D 21 Aug 00:36:30 00:39:28 25° 287° (WNW) 00:42:26 435.315
QB50P2 21 Aug 00:51:23 00:55:30 54° 285° (WNW) 00:59:37 145.880/145.840
EO-79 21 Aug 00:52:05 00:56:13 60° 285° (WNW) 01:00:21 145.935-145.965
50 SAT 21 Aug 00:56:46 01:00:06 54° 76° (ENE) 01:03:27 437.505
UKube-1 21 Aug 00:59:25 01:03:03 27° 71° (ENE) 01:06:42 .
M-CUBED/EXP-1 PRIME 21 Aug 01:02:27 01:06:11 29° 294° (WNW) 01:09:40 437.505
Oscar 19 21 Aug 01:03:46 01:06:37 15° 93° (E) 01:09:27 437.125/150
VELOX 1 21 Aug 01:19:03 01:22:52 28° 263° (W) 01:26:42 145.980
DX 1 21 Aug 01:20:06 01:24:29 79° 75° (ENE) 01:28:52 434.975-435.025
DUCHIFAT 1 21 Aug 01:22:30 01:26:14 32° 288° (WNW) 01:29:59 145.980
BUGSAT 1 21 Aug 01:22:31 01:26:28 56° 100° (E) 01:30:26 437.445
SPROUT 21 Aug 01:28:19 01:31:03 17° 266° (W) 01:33:48 437.525
NO-84 21 Aug 01:50:51 01:52:55 17° 319° (NW) 01:54:57 435.350 FM
ITUPSAT 1 21 Aug 02:03:04 02:05:37 15° 66° (ENE) 02:08:12 437.325
Gurwin Techsat 1B 21 Aug 02:14:57 02:20:08 52° 100° (E) 02:25:16 435.225
UKube-1 21 Aug 02:35:46 02:39:00 21° 264° (W) 02:42:16 .
Oscar 19 21 Aug 02:41:07 02:46:11 53° 287° (WNW) 02:51:13 437.125/150
MOZHAYETS 4 21 Aug 02:47:52 02:52:00 35° 72° (ENE) 02:56:09
BEESAT 21 Aug 03:03:49 03:08:32 70° 76° (ENE) 03:13:16 436.000
CUBESAT XI-V 21 Aug 03:10:41 03:12:16 12° 65° (ENE) 03:13:52 437.345
YUBILEINY 21 Aug 03:11:38 03:20:20 69° 82° (E) 03:28:58 435.215
ITUPSAT 1 21 Aug 03:38:24 03:42:59 49° 260° (W) 03:47:36 437.325
AO-7 21 Aug 03:52:16 04:00:21 52° 103° (ESE) 04:08:21 .
Gurwin Techsat 1B 21 Aug 03:56:17 03:59:36 17° 295° (WNW) 04:02:54 435.225
ITAMSAT 1 21 Aug 04:00:43 04:05:47 55° 101° (E) 04:10:50 435.822/435.867
AO-85 21 Aug 04:05:30 04:06:43 11° 109° (ESE) 04:07:55 145.980
BEESAT 3 21 Aug 04:10:24 04:13:37 24° 111° (ESE) 04:16:52 437.485
MOZHAYETS 4 21 Aug 04:26:14 04:29:13 17° 266° (W) 04:32:12
